When you browse on this site, cookies collect data to enhance your experience and personalize the content and advertising you see.
Visit our Privacy Policy to learn more. By continuing to use the site, you agree to this use of cookies and data.
  • In France
  • List of Countries
  • For 7 days
  • Water Temperature
  • Weather Map
  • Weather Widgets
  • user-avatar
    Login

    Hourly Weather Karlsruhe

    Today, 25 January, Saturday

    Time Temperature Precipitation Wind Pressure Humidity
    00:00 +3°C° 0 mm 1 mps 756 mmHg 89%
    01:00 +3°C° 0 mm 1 mps 756 mmHg 90%
    02:00 +2°C° 0 mm 1 mps 756 mmHg 91%
    03:00 +1°C° 0 mm 0 mps 755 mmHg 92%
    04:00 +1°C° 0 mm 0 mps 755 mmHg 92%
    05:00 +1°C° 0 mm 0 mps 755 mmHg 92%
    06:00 +1°C° 0 mm 0 mps 755 mmHg 92%
    07:00 +1°C° 0 mm 0 mps 755 mmHg 92%
    08:00 +2°C° 0 mm 0 mps 756 mmHg 90%
    09:00 +3°C° 0 mm 0 mps 756 mmHg 88%
    10:00 +4°C° 0 mm 0 mps 756 mmHg 86%
    11:00 +5°C° 0 mm 0 mps 756 mmHg 82%
    12:00 +6°C° 0 mm 0 mps 755 mmHg 78%
    13:00 +7°C° 0 mm 0 mps 755 mmHg 75%
    14:00 +7°C° 0 mm 0 mps 755 mmHg 78%
    15:00 +6°C° 0 mm 0 mps 755 mmHg 81%
    16:00 +5°C° 0 mm 0 mps 754 mmHg 85%
    17:00 +5°C° 0 mm 0 mps 754 mmHg 86%
    18:00 +4°C° 0 mm 0 mps 754 mmHg 88%
    19:00 +3°C° 0 mm 0 mps 754 mmHg 89%
    20:00 +3°C° 0 mm 0 mps 755 mmHg 90%
    21:00 +3°C° 0 mm 0 mps 755 mmHg 90%
    22:00 +3°C° 0 mm 0 mps 755 mmHg 90%
    23:00 +2°C° 0 mm 0 mps 754 mmHg 90%

    Tomorrow, 26 January, Sunday

    Time Temperature Precipitation Wind Pressure Humidity
    00:00 +2°C° 0 mm 0 mps 754 mmHg 90%
    01:00 +2°C° 0 mm 0 mps 754 mmHg 90%
    02:00 +2°C° 0 mm 0 mps 754 mmHg 91%
    03:00 +2°C° 0 mm 0 mps 754 mmHg 91%
    04:00 +2°C° 0 mm 0 mps 753 mmHg 91%
    05:00 +2°C° 0 mm 0 mps 753 mmHg 91%
    06:00 +3°C° 0 mm 1 mps 753 mmHg 91%
    07:00 +3°C° 0 mm 1 mps 753 mmHg 91%
    08:00 +4°C° 0 mm 1 mps 753 mmHg 88%
    09:00 +4°C° 0 mm 1 mps 754 mmHg 86%
    10:00 +5°C° 0 mm 1 mps 754 mmHg 83%
    11:00 +6°C° 0 mm 1 mps 753 mmHg 80%
    12:00 +8°C° 0 mm 1 mps 753 mmHg 76%
    13:00 +9°C° 0 mm 1 mps 753 mmHg 72%
    14:00 +9°C° 0 mm 1 mps 752 mmHg 75%
    15:00 +8°C° 0 mm 1 mps 752 mmHg 77%
    16:00 +8°C° 0 mm 1 mps 752 mmHg 79%
    17:00 +8°C° 0 mm 1 mps 752 mmHg 81%
    18:00 +7°C° 0 mm 1 mps 752 mmHg 84%
    19:00 +7°C° 0 mm 1 mps 752 mmHg 86%
    20:00 +7°C° 0 mm 1 mps 752 mmHg 87%
    21:00 +7°C° 0 mm 1 mps 752 mmHg 87%
    22:00 +6°C° 0 mm 2 mps 752 mmHg 88%
    23:00 +6°C° 0.2 mm 2 mps 752 mmHg 90%

    Day after tomorrow, 27 January, Monday

    Time Temperature Precipitation Wind Pressure Humidity
    00:00 +6°C° 0.2 mm 2 mps 752 mmHg 91%
    01:00 +6°C° 0.2 mm 2 mps 752 mmHg 93%
    02:00 +6°C° 0 mm 2 mps 752 mmHg 93%
    03:00 +5°C° 0 mm 2 mps 751 mmHg 93%
    04:00 +5°C° 0 mm 2 mps 751 mmHg 93%
    05:00 +5°C° 0 mm 2 mps 751 mmHg 92%
    06:00 +5°C° 0 mm 2 mps 751 mmHg 91%
    07:00 +6°C° 0 mm 2 mps 751 mmHg 90%
    08:00 +5°C° 0 mm 3 mps 750 mmHg 88%
    09:00 +7°C° 0 mm 3 mps 750 mmHg 86%
    10:00 +7°C° 0 mm 3 mps 750 mmHg 83%
    11:00 +8°C° 0 mm 3 mps 749 mmHg 81%
    12:00 +8°C° 0 mm 3 mps 749 mmHg 80%
    13:00 +8°C° 0 mm 4 mps 748 mmHg 78%
    14:00 +8°C° 0 mm 3 mps 748 mmHg 79%
    15:00 +8°C° 0 mm 3 mps 747 mmHg 80%
    16:00 +8°C° 0 mm 2 mps 747 mmHg 81%
    17:00 +8°C° 0.5 mm 3 mps 746 mmHg 84%
    18:00 +8°C° 0.5 mm 3 mps 746 mmHg 87%
    19:00 +7°C° 0.5 mm 3 mps 745 mmHg 90%
    20:00 +6°C° 0.8 mm 4 mps 745 mmHg 90%
    21:00 +7°C° 0.8 mm 4 mps 744 mmHg 89%
    22:00 +7°C° 0.8 mm 5 mps 744 mmHg 89%
    23:00 +7°C° 0.1 mm 5 mps 743 mmHg 87%

    28 January, Tuesday

    Time Temperature Precipitation Wind Pressure Humidity
    00:00 +7°C° 0.1 mm 5 mps 742 mmHg 84%
    01:00 +7°C° 0.1 mm 5 mps 741 mmHg 82%
    02:00 +7°C° 0.1 mm 5 mps 740 mmHg 81%
    03:00 +7°C° 0.1 mm 5 mps 739 mmHg 81%
    04:00 +7°C° 0.1 mm 5 mps 737 mmHg 80%
    05:00 +7°C° 1.1 mm 6 mps 737 mmHg 81%
    06:00 +6°C° 1.1 mm 7 mps 737 mmHg 81%
    07:00 +6°C° 1.1 mm 8 mps 737 mmHg 82%
    08:00 +5°C° 0.7 mm 8 mps 738 mmHg 81%
    09:00 +5°C° 0.7 mm 8 mps 739 mmHg 81%
    10:00 +4°C° 0.7 mm 8 mps 739 mmHg 81%
    11:00 +4°C° 0.3 mm 8 mps 740 mmHg 78%
    12:00 +3°C° 0.3 mm 9 mps 741 mmHg 76%
    13:00 +3°C° 0.3 mm 9 mps 741 mmHg 73%
    14:00 +2°C° 0.3 mm 9 mps 742 mmHg 71%
    15:00 +2°C° 0.3 mm 8 mps 743 mmHg 68%
    16:00 +2°C° 0.3 mm 8 mps 744 mmHg 66%
    17:00 +3°C° 0 mm 7 mps 744 mmHg 68%
    18:00 +2°C° 0 mm 6 mps 745 mmHg 70%
    19:00 +2°C° 0 mm 6 mps 745 mmHg 73%
    20:00 +2°C° 0 mm 6 mps 745 mmHg 73%
    21:00 +2°C° 0 mm 7 mps 745 mmHg 72%
    22:00 +2°C° 0 mm 7 mps 745 mmHg 72%
    23:00 +2°C° 0 mm 7 mps 744 mmHg 75%

    29 January, Wednesday

    Time Temperature Precipitation Wind Pressure Humidity
    00:00 +1°C° 0 mm 8 mps 743 mmHg 77%
    01:00 +2°C° 0 mm 8 mps 742 mmHg 79%
    02:00 +2°C° 1.3 mm 9 mps 741 mmHg 82%
    03:00 +1°C° 1.3 mm 9 mps 740 mmHg 84%
    04:00 +1°C° 1.3 mm 10 mps 740 mmHg 86%
    05:00 +1°C° 0.3 mm 9 mps 741 mmHg 82%
    06:00 +1°C° 0.3 mm 8 mps 742 mmHg 78%
    07:00 0°C° 0.3 mm 7 mps 743 mmHg 74%
    08:00 0°C° 0 mm 7 mps 744 mmHg 72%
    09:00 0°C° 0 mm 7 mps 745 mmHg 71%
    10:00 0°C° 0 mm 7 mps 746 mmHg 70%
    11:00 +2°C° 0 mm 7 mps 746 mmHg 68%
    12:00 +3°C° 0 mm 7 mps 746 mmHg 66%
    13:00 +3°C° 0 mm 7 mps 746 mmHg 64%
    14:00 +3°C° 0.1 mm 7 mps 746 mmHg 66%
    15:00 +3°C° 0.1 mm 6 mps 746 mmHg 68%
    16:00 +3°C° 0.1 mm 6 mps 746 mmHg 70%
    17:00 +3°C° 0 mm 6 mps 746 mmHg 73%
    18:00 +3°C° 0 mm 7 mps 747 mmHg 76%
    19:00 +3°C° 0 mm 7 mps 747 mmHg 79%
    20:00 +2°C° 0.6 mm 7 mps 747 mmHg 81%
    21:00 +2°C° 0.6 mm 7 mps 748 mmHg 83%
    22:00 +1°C° 0.6 mm 8 mps 748 mmHg 86%
    23:00 +2°C° 0.3 mm 7 mps 749 mmHg 85%

    30 January, Thursday

    Time Temperature Precipitation Wind Pressure Humidity
    00:00 +2°C° 0.3 mm 6 mps 749 mmHg 84%
    01:00 +2°C° 0.3 mm 5 mps 750 mmHg 84%
    02:00 +2°C° 0 mm 5 mps 750 mmHg 83%
    03:00 +2°C° 0 mm 5 mps 750 mmHg 83%
    04:00 +2°C° 0 mm 5 mps 750 mmHg 83%
    05:00 +2°C° 0 mm 5 mps 750 mmHg 84%
    06:00 +2°C° 0 mm 5 mps 749 mmHg 84%
    07:00 +1°C° 0 mm 5 mps 749 mmHg 84%
    08:00 +2°C° 0 mm 6 mps 749 mmHg 82%
    09:00 +2°C° 0 mm 6 mps 750 mmHg 80%
    10:00 +3°C° 0 mm 7 mps 750 mmHg 78%
    11:00 +4°C° 0 mm 7 mps 750 mmHg 77%
    12:00 +4°C° 0 mm 6 mps 750 mmHg 76%
    13:00 +5°C° 0 mm 6 mps 750 mmHg 75%
    14:00 +6°C° 0 mm 5 mps 750 mmHg 75%
    15:00 +6°C° 0 mm 5 mps 750 mmHg 76%
    16:00 +6°C° 0 mm 4 mps 750 mmHg 77%
    17:00 +5°C° 0 mm 3 mps 750 mmHg 80%
    18:00 +4°C° 0 mm 3 mps 750 mmHg 83%
    19:00 +5°C° 0 mm 2 mps 750 mmHg 86%
    20:00 +4°C° 0 mm 2 mps 750 mmHg 86%
    21:00 +4°C° 0 mm 2 mps 750 mmHg 87%
    22:00 +4°C° 0 mm 2 mps 750 mmHg 87%
    23:00 +5°C° 0 mm 1 mps 750 mmHg 88%
    Show more